Fargo, ND

10:57 AM CST on February 19, 2017 (GMT -0600)
Hector International

Weather History for KFAR - April, 2012

Change the Weather History Date:

Monday, April 16, 2012

  Actual Average Record
Temperature  
Mean Temperature 36 °F 45 °F  
Max Temperature 45 °F 57 °F 89 °F (2002)
Min Temperature 27 °F 33 °F 13 °F (1953)
Degree Days  
Heating Degree Days 29 20  
Month to date heating degree days 295 392  
Since 1 July heating degree days 6446 8222  
Cooling Degree Days 0 0  
Month to date cooling degree days 0 0  
Year to date cooling degree days 6 0  
Moisture  
Dew Point 21 °F    
Average Humidity 55    
Maximum Humidity 82    
Minimum Humidity 27    
Precipitation  
Precipitation 0.00 in 0.04 in 0.96 in (1967)
Month to date precipitation 0.70 0.64  
Year to date precipitation 3.01 3.25  
Snow  
Snow 0.00 in 0.10 in 2.50 in (1945)
Month to date snowfall T 1.9  
Since 1 July snowfall 27.0 49.0  
Snow Depth 0.00 in    
Sea Level Pressure  
Sea Level Pressure 29.99 in    
Wind  
Wind Speed 18 mph (NNW)    
Max Wind Speed 33 mph    
Max Gust Speed 38 mph    
Visibility 10 miles    
Events      
T = Trace of Precipitation, MM = Missing Value Source: NWS Daily Summary

Daily Weather History Graph

Daily Weather History Graph

Search for Another Location

Airport or City:

Trip Planner

Search our weather history database for the weather conditions in past years. The results will help you decide how hot, cold, wet, or windy it might be!

Date:

Astronomy

Apr. 16, 2012 Rise Set
Actual Time 6:36 AM CDT 8:17 PM CDT
Civil Twilight 6:04 AM CDT 8:50 PM CDT
Nautical Twilight 5:25 AM CDT 9:29 PM CDT
Astronomical Twilight 4:43 AM CDT 10:12 PM CDT
Moon 4:21 AM CDT (4/16) 3:59 PM CDT (4/16)
Length of Visible Light 14h 45m
Length of Day
13h 41m
Waning Crescent, 19% of the Moon is Illuminated
Apr 16
Waning Crescent
Apr 21
New
Apr 29
First Quarter
May 5
Full
May 12
Last Quarter

Hourly Weather History & Observations

Time (CDT) Temp. Windchill Dew Point Humidity Pressure Visibility Wind Dir Wind Speed Gust Speed Precip Events Conditions
12:53 AM 36.0 °F 23.0 °F 30.0 °F 79% 29.73 in 10.0 mi NNW 29.9 mph 38.0 mph N/A   Overcast
1:53 AM 34.0 °F 20.8 °F 28.0 °F 79% 29.75 in 10.0 mi NNW 27.6 mph 35.7 mph N/A   Overcast
2:53 AM 34.0 °F 20.3 °F 28.0 °F 79% 29.77 in 10.0 mi NNW 29.9 mph 36.8 mph N/A   Overcast
3:53 AM 33.1 °F 19.3 °F 26.1 °F 75% 29.79 in 10.0 mi North 28.8 mph 36.8 mph N/A   Overcast
4:53 AM 32.0 °F 18.6 °F 23.0 °F 69% 29.83 in 10.0 mi NNW 25.3 mph 33.4 mph N/A   Overcast
5:12 AM 30.2 °F 16.5 °F 23.0 °F 75% 29.80 in 10.0 mi North 24.2 mph 33.4 mph N/A   Scattered Clouds
5:53 AM 30.9 °F 16.7 °F 21.9 °F 69% 29.85 in 10.0 mi North 27.6 mph 33.4 mph N/A   Clear
6:53 AM 30.0 °F 17.2 °F 21.9 °F 72% 29.90 in 10.0 mi NNW 20.7 mph 31.1 mph N/A   Clear
7:53 AM 30.0 °F 15.4 °F 21.0 °F 69% 29.94 in 10.0 mi NNW 27.6 mph 34.5 mph N/A   Clear
8:53 AM 30.9 °F 16.9 °F 21.0 °F 67% 29.97 in 10.0 mi NNW 26.5 mph 32.2 mph N/A   Scattered Clouds
9:18 AM 30.2 °F 16.5 °F 21.2 °F 69% 29.95 in 10.0 mi NNW 24.2 mph - N/A   Mostly Cloudy
9:30 AM 30.2 °F 16.8 °F 19.4 °F 64% 29.96 in 10.0 mi North 23.0 mph 31.1 mph N/A   Scattered Clouds
9:38 AM 32.0 °F 19.5 °F 21.2 °F 64% 29.96 in 10.0 mi North 21.9 mph 31.1 mph N/A   Mostly Cloudy
9:53 AM 32.0 °F 19.2 °F 21.0 °F 64% 30.00 in 10.0 mi NNW 23.0 mph - N/A   Partly Cloudy
10:33 AM 33.8 °F 21.3 °F 19.4 °F 56% 29.99 in 10.0 mi North 24.2 mph 33.4 mph N/A   Mostly Cloudy
10:50 AM 33.8 °F 21.6 °F 21.2 °F 60% 29.99 in 10.0 mi NNW 23.0 mph 33.4 mph N/A   Scattered Clouds
10:53 AM 34.0 °F 20.8 °F 21.0 °F 59% 30.03 in 10.0 mi NNW 27.6 mph 33.4 mph N/A   Scattered Clouds
11:53 AM 37.0 °F 25.4 °F 21.9 °F 54% 30.04 in 10.0 mi NNW 25.3 mph 31.1 mph N/A   Partly Cloudy
12:53 PM 39.9 °F 31.1 °F 21.0 °F 47% 30.06 in 10.0 mi NW 17.3 mph 25.3 mph N/A   Overcast
1:53 PM 41.0 °F 32.2 °F 19.0 °F 41% 30.07 in 10.0 mi NW 18.4 mph 26.5 mph N/A   Overcast
2:53 PM 43.0 °F 35.1 °F 17.1 °F 35% 30.07 in 10.0 mi NNW 17.3 mph 25.3 mph N/A   Overcast
3:53 PM 44.1 °F 38.1 °F 14.0 °F 30% 30.08 in 10.0 mi NNW 11.5 mph 21.9 mph N/A   Clear
4:53 PM 45.0 °F 38.2 °F 12.9 °F 27% 30.09 in 10.0 mi NW 15.0 mph 18.4 mph N/A   Scattered Clouds
5:53 PM 45.0 °F 39.7 °F 17.1 °F 33% 30.12 in 10.0 mi NW 10.4 mph - N/A   Partly Cloudy
6:53 PM 44.1 °F 37.1 °F 17.1 °F 34% 30.13 in 10.0 mi WNW 15.0 mph - N/A   Clear
7:53 PM 41.0 °F 34.7 °F 12.9 °F 32% 30.15 in 10.0 mi NW 10.4 mph - N/A   Clear
8:53 PM 35.1 °F 28.6 °F 17.1 °F 48% 30.18 in 10.0 mi NNW 8.1 mph - N/A   Clear
9:53 PM 33.1 °F 28.7 °F 17.1 °F 52% 30.20 in 10.0 mi WSW 4.6 mph - N/A   Clear
10:53 PM 34.0 °F - 16.0 °F 48% 30.19 in 10.0 mi Calm Calm - N/A   Clear
11:53 PM 30.0 °F 25.2 °F 21.0 °F 69% 30.21 in 10.0 mi West 4.6 mph - N/A   Clear